THY5JB LTFE-LICR

Flight info

Callsign THY5JB
Flight time 1h 31m
Altitude 40000
Route AKBUK UG80 OKESA DCT REDRA DCT KUGGI UL52 KOR UN604 RUTOM/N0453F390 DCT GIMEL
Aircraft B738/M-SDE2E3FGHIRWXY/LB1

Departure

Time 2026-04-20 15:15
Airport Milas Bodrum International Airport (LTFE)

Arrival

Time 2026-04-20 16:47
Airport Reggio Calabria Airport (LICR)
Time Latitude Longitude Altitude Speed Heading
2026-04-20 15:15 37.45249 27.53493 20691 ft 409 kts 299°
2026-04-20 15:15 37.46634 27.50359 21297 ft 412 kts 300°
2026-04-20 15:16 37.48371 27.47486 21815 ft 417 kts 317°
2026-04-20 15:16 37.50756 27.45412 22401 ft 419 kts 333°
2026-04-20 15:16 37.53445 27.43928 22955 ft 422 kts 337°
2026-04-20 15:16 37.56159 27.42478 23429 ft 427 kts 336°
2026-04-20 15:17 37.58887 27.40948 23896 ft 431 kts 334°
2026-04-20 15:17 37.61488 27.38959 24378 ft 433 kts 321°
2026-04-20 15:17 37.63646 27.36311 24876 ft 435 kts 309°
2026-04-20 15:17 37.65333 27.33130 25326 ft 438 kts 298°
2026-04-20 15:18 37.66743 27.29723 25758 ft 441 kts 297°
2026-04-20 15:18 37.68135 27.26248 26033 ft 447 kts 296°
2026-04-20 15:18 37.69543 27.22722 26474 ft 448 kts 296°
2026-04-20 15:18 37.70972 27.19170 27043 ft 447 kts 297°
2026-04-20 15:19 37.72395 27.15666 27410 ft 450 kts 297°
2026-04-20 15:19 37.73837 27.12141 27701 ft 455 kts 297°
2026-04-20 15:19 37.75301 27.08575 28027 ft 458 kts 297°
2026-04-20 15:19 37.76771 27.05001 28386 ft 460 kts 297°
2026-04-20 15:20 37.78251 27.01399 28713 ft 462 kts 297°
2026-04-20 15:20 37.79733 26.97790 29044 ft 464 kts 297°
2026-04-20 15:20 37.81225 26.94149 29363 ft 466 kts 297°
2026-04-20 15:20 37.82716 26.90507 29663 ft 468 kts 297°
2026-04-20 15:21 37.84215 26.86838 30045 ft 468 kts 297°
2026-04-20 15:21 37.85704 26.83190 30496 ft 466 kts 297°
2026-04-20 15:21 37.87184 26.79558 30950 ft 464 kts 297°
2026-04-20 15:21 37.88663 26.75926 31333 ft 464 kts 297°
2026-04-20 15:22 37.90140 26.72295 31671 ft 464 kts 297°
2026-04-20 15:22 37.91615 26.68665 32047 ft 463 kts 297°
2026-04-20 15:22 37.93083 26.65047 32444 ft 462 kts 297°
2026-04-20 15:22 37.94566 26.61390 32821 ft 461 kts 297°
2026-04-20 15:23 37.96025 26.57768 33166 ft 460 kts 295°
2026-04-20 15:23 37.97174 26.53993 33477 ft 460 kts 285°
2026-04-20 15:23 37.97827 26.50034 33840 ft 459 kts 277°
2026-04-20 15:23 37.98014 26.46008 34182 ft 458 kts 268°
2026-04-20 15:24 37.97846 26.41972 34503 ft 457 kts 266°
2026-04-20 15:24 37.97624 26.37948 34800 ft 457 kts 266°
2026-04-20 15:24 37.97388 26.33934 35117 ft 456 kts 265°
2026-04-20 15:24 37.97157 26.29939 35445 ft 455 kts 266°
2026-04-20 15:25 37.96935 26.25929 35748 ft 455 kts 266°
2026-04-20 15:25 37.96724 26.21945 36026 ft 454 kts 266°
2026-04-20 15:25 37.96518 26.17941 36315 ft 454 kts 266°
2026-04-20 15:25 37.96316 26.13952 36571 ft 454 kts 266°
2026-04-20 15:26 37.96115 26.09961 36804 ft 454 kts 266°
2026-04-20 15:26 37.95914 26.05966 37055 ft 454 kts 266°
2026-04-20 15:26 37.95711 26.01984 37308 ft 454 kts 266°
2026-04-20 15:26 37.95506 25.97991 37541 ft 454 kts 266°
2026-04-20 15:27 37.95300 25.93992 37759 ft 454 kts 266°
2026-04-20 15:27 37.95092 25.90007 37990 ft 454 kts 266°
2026-04-20 15:27 37.94882 25.86012 38216 ft 454 kts 266°
2026-04-20 15:27 37.94671 25.82019 38433 ft 454 kts 266°
2026-04-20 15:28 37.94460 25.78042 38639 ft 454 kts 266°
2026-04-20 15:28 37.94246 25.74043 38840 ft 454 kts 266°
2026-04-20 15:28 37.94031 25.70054 39040 ft 454 kts 266°
2026-04-20 15:28 37.93815 25.66069 39260 ft 453 kts 266°
2026-04-20 15:29 37.93598 25.62103 39491 ft 452 kts 266°
2026-04-20 15:29 37.93379 25.58116 39659 ft 453 kts 266°
2026-04-20 15:29 37.93159 25.54134 39812 ft 453 kts 266°
2026-04-20 15:29 37.92938 25.50153 39976 ft 453 kts 266°
2026-04-20 15:30 37.92715 25.46160 39986 ft 456 kts 266°
2026-04-20 15:30 37.92340 25.39505 40000 ft 455 kts 266°
2026-04-20 15:31 37.91887 25.31553 39998 ft 452 kts 266°
2026-04-20 15:31 37.91426 25.23567 40000 ft 449 kts 266°
2026-04-20 15:32 37.90966 25.15689 40001 ft 448 kts 265°
2026-04-20 15:32 37.90503 25.07846 40002 ft 447 kts 265°
2026-04-20 15:33 37.90035 24.99999 40003 ft 447 kts 265°
2026-04-20 15:33 37.89561 24.92148 40002 ft 448 kts 265°
2026-04-20 15:34 37.89079 24.84257 40006 ft 450 kts 265°
2026-04-20 15:34 37.88602 24.76523 40003 ft 452 kts 265°
2026-04-20 15:35 37.88106 24.68573 40008 ft 454 kts 265°
2026-04-20 15:35 37.87594 24.60460 40002 ft 456 kts 265°
2026-04-20 15:36 37.87079 24.52371 40002 ft 457 kts 265°
2026-04-20 15:36 37.86566 24.44424 40001 ft 457 kts 265°
2026-04-20 15:37 37.86033 24.36239 40001 ft 457 kts 265°
2026-04-20 15:37 37.85506 24.28231 40000 ft 456 kts 265°
2026-04-20 15:38 37.84974 24.20237 40000 ft 455 kts 265°
2026-04-20 15:38 37.84439 24.12269 40000 ft 454 kts 265°
2026-04-20 15:39 37.83900 24.04325 40000 ft 453 kts 265°
2026-04-20 15:39 37.83350 23.96306 40000 ft 453 kts 265°
2026-04-20 15:40 37.82797 23.88328 40002 ft 452 kts 265°
2026-04-20 15:40 37.82244 23.80414 40002 ft 452 kts 265°
2026-04-20 15:41 37.81680 23.72433 40000 ft 452 kts 265°
2026-04-20 15:41 37.81119 23.64554 40002 ft 451 kts 265°
2026-04-20 15:42 37.80546 23.56583 40001 ft 451 kts 265°
2026-04-20 15:42 37.79969 23.48622 40002 ft 451 kts 265°
2026-04-20 15:43 37.80368 23.40719 40003 ft 451 kts 283°
2026-04-20 15:43 37.82292 23.33179 40001 ft 451 kts 289°
2026-04-20 15:44 37.84415 23.25622 40002 ft 452 kts 289°
2026-04-20 15:44 37.86455 23.18151 40002 ft 453 kts 289°
2026-04-20 15:45 37.88477 23.10598 40001 ft 453 kts 288°
2026-04-20 15:45 37.90494 23.03027 40002 ft 454 kts 288°
2026-04-20 15:46 37.92508 22.95459 40001 ft 454 kts 288°
2026-04-20 15:46 37.93887 22.87628 40008 ft 454 kts 279°
2026-04-20 15:47 37.94841 22.79695 40002 ft 454 kts 278°
2026-04-20 15:47 37.95672 22.73076 39999 ft 455 kts 279°
2026-04-20 15:48 37.96714 22.65108 39997 ft 455 kts 280°
2026-04-20 15:48 37.97954 22.57237 39998 ft 456 kts 282°
2026-04-20 15:49 37.99271 22.49371 40010 ft 457 kts 282°
2026-04-20 15:49 38.00566 22.41465 40006 ft 459 kts 281°
2026-04-20 15:50 38.01839 22.33532 39999 ft 460 kts 281°
2026-04-20 15:50 38.03106 22.25549 40004 ft 462 kts 281°
2026-04-20 15:51 38.04369 22.17560 40005 ft 464 kts 281°
2026-04-20 15:51 38.05645 22.09457 40001 ft 464 kts 281°
2026-04-20 15:52 38.06905 22.01416 40007 ft 464 kts 281°
2026-04-20 15:52 38.08157 21.93395 40004 ft 463 kts 281°
2026-04-20 15:53 38.10020 21.81382 40006 ft 461 kts 281°
2026-04-20 15:53 38.11249 21.73413 40001 ft 459 kts 281°
2026-04-20 15:54 38.12474 21.65428 39997 ft 456 kts 281°
2026-04-20 15:54 38.13679 21.57540 39997 ft 454 kts 281°
2026-04-20 15:55 38.14873 21.49687 39997 ft 451 kts 281°
2026-04-20 15:55 38.16055 21.41868 40000 ft 450 kts 280°
2026-04-20 15:56 38.17141 21.34062 40001 ft 448 kts 279°
2026-04-20 15:56 38.18185 21.26252 40001 ft 448 kts 279°
2026-04-20 15:57 38.19231 21.18441 40003 ft 448 kts 279°
2026-04-20 15:57 38.20280 21.10630 40002 ft 449 kts 279°
2026-04-20 15:58 38.21331 21.02785 40002 ft 450 kts 279°
2026-04-20 15:58 38.22386 20.94869 40003 ft 452 kts 279°
2026-04-20 15:59 38.23431 20.86984 40003 ft 453 kts 279°
2026-04-20 15:59 38.24474 20.79072 40002 ft 454 kts 279°
2026-04-20 16:00 38.25515 20.71128 40002 ft 455 kts 279°
2026-04-20 16:00 38.26551 20.63183 40003 ft 456 kts 279°
2026-04-20 16:01 38.27585 20.55205 39989 ft 457 kts 279°
2026-04-20 16:01 38.28616 20.47213 40006 ft 458 kts 279°
2026-04-20 16:02 38.29642 20.39211 39999 ft 458 kts 279°
2026-04-20 16:02 38.30662 20.31222 39999 ft 457 kts 279°
2026-04-20 16:03 38.31694 20.23232 39999 ft 456 kts 280°
2026-04-20 16:03 38.32991 20.15330 40001 ft 455 kts 282°
2026-04-20 16:04 38.34368 20.07481 40000 ft 454 kts 282°
2026-04-20 16:04 38.35708 19.99630 40001 ft 453 kts 282°
2026-04-20 16:05 38.37014 19.91792 40001 ft 452 kts 282°
2026-04-20 16:05 38.38304 19.83967 40001 ft 451 kts 282°
2026-04-20 16:06 38.39589 19.76134 40001 ft 451 kts 282°
2026-04-20 16:06 38.40867 19.68318 40001 ft 451 kts 282°
2026-04-20 16:07 38.42143 19.60482 40002 ft 451 kts 282°
2026-04-20 16:07 38.43412 19.52651 40002 ft 451 kts 281°
2026-04-20 16:08 38.44677 19.44815 40002 ft 451 kts 281°
2026-04-20 16:08 38.45939 19.36959 40002 ft 452 kts 281°
2026-04-20 16:09 38.47195 19.29102 40002 ft 453 kts 281°
2026-04-20 16:09 38.48450 19.21222 40002 ft 453 kts 281°
2026-04-20 16:10 38.49700 19.13335 40002 ft 454 kts 281°
2026-04-20 16:10 38.50947 19.05432 40002 ft 454 kts 281°
2026-04-20 16:11 38.51888 18.97465 39994 ft 454 kts 271°
2026-04-20 16:11 38.51841 18.89393 40000 ft 454 kts 269°
2026-04-20 16:12 38.51705 18.81318 40001 ft 454 kts 269°
2026-04-20 16:12 38.51599 18.73249 40003 ft 455 kts 269°
2026-04-20 16:13 38.51516 18.65159 40001 ft 456 kts 269°
2026-04-20 16:13 38.51438 18.57045 40001 ft 457 kts 269°
2026-04-20 16:14 38.51355 18.48931 40000 ft 456 kts 269°
2026-04-20 16:14 38.51266 18.40844 40000 ft 456 kts 269°
2026-04-20 16:15 38.51170 18.32746 40000 ft 455 kts 269°
2026-04-20 16:15 38.51068 18.24668 40000 ft 455 kts 269°
2026-04-20 16:16 38.50962 18.16610 40001 ft 454 kts 269°
2026-04-20 16:16 38.50850 18.08556 40001 ft 453 kts 269°
2026-04-20 16:17 38.50733 18.00520 40001 ft 453 kts 269°
2026-04-20 16:17 38.50630 17.93773 39623 ft 458 kts 269°
2026-04-20 16:18 38.50566 17.89711 39093 ft 457 kts 269°
2026-04-20 16:18 38.50501 17.85648 38467 ft 456 kts 269°
2026-04-20 16:18 38.50435 17.81604 37844 ft 455 kts 269°
2026-04-20 16:18 38.50368 17.77576 37205 ft 454 kts 269°
2026-04-20 16:19 38.50299 17.73545 36543 ft 454 kts 269°
2026-04-20 16:19 38.50229 17.69529 35882 ft 453 kts 269°
2026-04-20 16:19 38.50157 17.65492 35134 ft 454 kts 269°
2026-04-20 16:19 38.50084 17.61456 34381 ft 455 kts 269°
2026-04-20 16:20 38.50010 17.57424 33608 ft 456 kts 269°
2026-04-20 16:20 38.49934 17.53371 32807 ft 457 kts 269°
2026-04-20 16:20 38.49856 17.49303 31974 ft 458 kts 269°
2026-04-20 16:20 38.49777 17.45228 31231 ft 458 kts 268°
2026-04-20 16:21 38.49697 17.41197 30646 ft 452 kts 268°
2026-04-20 16:21 38.49616 17.37200 30048 ft 448 kts 268°
2026-04-20 16:21 38.49535 17.33252 29456 ft 443 kts 268°
2026-04-20 16:21 38.49454 17.29340 28860 ft 438 kts 268°
2026-04-20 16:22 38.49372 17.25476 28263 ft 434 kts 268°
2026-04-20 16:22 38.49290 17.21644 27674 ft 429 kts 268°
2026-04-20 16:22 38.49206 17.17804 27081 ft 425 kts 268°
2026-04-20 16:22 38.49124 17.14101 26506 ft 421 kts 268°
2026-04-20 16:23 38.49102 17.10389 25929 ft 416 kts 270°
2026-04-20 16:23 38.49049 17.06663 25347 ft 412 kts 268°
2026-04-20 16:23 38.48950 17.03028 24779 ft 409 kts 268°
2026-04-20 16:23 38.48839 16.99411 24211 ft 405 kts 268°
2026-04-20 16:24 38.48732 16.95845 23649 ft 401 kts 268°
2026-04-20 16:24 38.48632 16.92303 23090 ft 398 kts 268°
2026-04-20 16:24 38.48538 16.88787 22533 ft 394 kts 268°
2026-04-20 16:24 38.48448 16.85299 21980 ft 391 kts 268°
2026-04-20 16:25 38.48361 16.81850 21426 ft 388 kts 268°
2026-04-20 16:25 38.48274 16.78428 20886 ft 384 kts 268°
2026-04-20 16:25 38.48188 16.75024 20342 ft 381 kts 268°
2026-04-20 16:25 38.48101 16.71659 19803 ft 378 kts 268°
2026-04-20 16:26 38.48014 16.68315 19266 ft 375 kts 268°
2026-04-20 16:26 38.47927 16.65016 18736 ft 372 kts 268°
2026-04-20 16:26 38.47840 16.61719 18206 ft 369 kts 268°
2026-04-20 16:26 38.47752 16.58466 17681 ft 366 kts 268°
2026-04-20 16:27 38.47664 16.55219 17157 ft 363 kts 268°
2026-04-20 16:27 38.47576 16.52011 16636 ft 361 kts 268°
2026-04-20 16:27 38.47488 16.48815 16120 ft 358 kts 268°
2026-04-20 16:27 38.47399 16.45660 15599 ft 356 kts 268°
2026-04-20 16:28 38.47310 16.42511 15082 ft 353 kts 268°
2026-04-20 16:28 38.47221 16.39389 14564 ft 351 kts 268°
2026-04-20 16:28 38.47132 16.36281 14050 ft 349 kts 268°
2026-04-20 16:28 38.47043 16.33198 13540 ft 347 kts 268°
2026-04-20 16:29 38.46953 16.30128 13023 ft 345 kts 268°
2026-04-20 16:29 38.46862 16.27078 12522 ft 343 kts 268°
2026-04-20 16:29 38.46772 16.24046 12013 ft 341 kts 268°
2026-04-20 16:29 38.46682 16.21030 11512 ft 339 kts 268°
2026-04-20 16:30 38.46591 16.18044 11018 ft 336 kts 268°
2026-04-20 16:30 38.46501 16.15075 10610 ft 332 kts 268°
2026-04-20 16:30 38.46412 16.12198 10481 ft 318 kts 268°
2026-04-20 16:30 38.46326 16.09424 10336 ft 307 kts 268°
2026-04-20 16:31 38.46118 16.06777 10186 ft 296 kts 253°
2026-04-20 16:31 38.45208 16.04485 10079 ft 285 kts 232°
2026-04-20 16:31 38.43815 16.02753 9930 ft 277 kts 220°
2026-04-20 16:31 38.42332 16.01183 9610 ft 276 kts 219°
2026-04-20 16:32 38.40851 15.99643 9329 ft 274 kts 219°
2026-04-20 16:32 38.39377 15.98103 9029 ft 272 kts 220°
2026-04-20 16:32 38.37920 15.96572 8728 ft 271 kts 220°
2026-04-20 16:32 38.36477 15.95043 8432 ft 269 kts 220°
2026-04-20 16:33 38.35039 15.93519 8132 ft 268 kts 220°
2026-04-20 16:33 38.33621 15.92014 7966 ft 259 kts 220°
2026-04-20 16:33 38.32285 15.90595 7856 ft 243 kts 220°
2026-04-20 16:33 38.31022 15.89255 7747 ft 229 kts 220°
2026-04-20 16:34 38.29821 15.87979 7645 ft 216 kts 220°
2026-04-20 16:34 38.28699 15.86788 7532 ft 203 kts 220°
2026-04-20 16:34 38.27630 15.85652 7316 ft 199 kts 220°
2026-04-20 16:34 38.26574 15.84530 7034 ft 198 kts 220°
2026-04-20 16:35 38.25514 15.83405 6748 ft 197 kts 220°
2026-04-20 16:35 38.24460 15.82287 6446 ft 197 kts 220°
2026-04-20 16:35 38.23410 15.81176 6180 ft 197 kts 220°
2026-04-20 16:35 38.22359 15.80063 5940 ft 196 kts 220°
2026-04-20 16:36 38.21315 15.78957 5670 ft 195 kts 220°
2026-04-20 16:36 38.20275 15.77855 5398 ft 194 kts 220°
2026-04-20 16:36 38.19234 15.76755 5148 ft 194 kts 220°
2026-04-20 16:36 38.18183 15.75643 4861 ft 194 kts 220°
2026-04-20 16:37 38.17158 15.74559 4669 ft 189 kts 220°
2026-04-20 16:37 38.16154 15.73500 4563 ft 186 kts 220°
2026-04-20 16:37 38.15156 15.72443 4481 ft 189 kts 220°
2026-04-20 16:37 38.14137 15.71366 4408 ft 192 kts 220°
2026-04-20 16:38 38.13107 15.70277 4311 ft 192 kts 220°
2026-04-20 16:38 38.11991 15.69406 4240 ft 187 kts 198°
2026-04-20 16:38 38.10735 15.68927 4261 ft 187 kts 198°
2026-04-20 16:38 38.09488 15.68424 4269 ft 190 kts 198°
2026-04-20 16:39 38.08219 15.67901 4273 ft 192 kts 199°
2026-04-20 16:39 38.06954 15.67376 4265 ft 188 kts 198°
2026-04-20 16:39 38.05757 15.66880 4240 ft 174 kts 198°
2026-04-20 16:39 38.04651 15.66422 4176 ft 161 kts 198°
2026-04-20 16:40 38.03592 15.65986 4093 ft 161 kts 198°
2026-04-20 16:40 38.02517 15.65542 3922 ft 162 kts 199°
2026-04-20 16:40 38.01449 15.65100 3764 ft 161 kts 199°
2026-04-20 16:40 38.00394 15.64665 3586 ft 158 kts 199°
2026-04-20 16:41 37.99355 15.64236 3423 ft 157 kts 199°
2026-04-20 16:41 37.98337 15.63817 3235 ft 148 kts 199°
2026-04-20 16:41 37.97395 15.63430 3120 ft 142 kts 199°
2026-04-20 16:41 37.96443 15.63039 3012 ft 144 kts 200°
2026-04-20 16:42 37.95473 15.62646 2864 ft 147 kts 198°
2026-04-20 16:42 37.94463 15.62544 2696 ft 145 kts 180°
2026-04-20 16:42 37.93453 15.62604 2513 ft 147 kts 166°
2026-04-20 16:42 37.92707 15.63410 2334 ft 146 kts 111°
2026-04-20 16:43 37.92835 15.64632 2157 ft 146 kts 50°
2026-04-20 16:43 37.93644 15.65413 1982 ft 148 kts 35°
2026-04-20 16:43 37.94557 15.65943 1782 ft 146 kts 356°
2026-04-20 16:43 37.95433 15.65389 1865 ft 142 kts 322°
2026-04-20 16:44 37.96275 15.64722 1963 ft 144 kts 335°
2026-04-20 16:44 37.97267 15.64655 2025 ft 144 kts
2026-04-20 16:44 37.98267 15.64763 2105 ft 146 kts 16°
2026-04-20 16:44 37.99213 15.65261 2089 ft 150 kts 20°
2026-04-20 16:45 38.00225 15.65547 1946 ft 148 kts 10°
2026-04-20 16:45 38.01230 15.65800 1770 ft 146 kts
2026-04-20 16:45 38.02227 15.65982 1543 ft 144 kts
2026-04-20 16:45 38.03227 15.66093 1262 ft 145 kts
2026-04-20 16:46 38.04239 15.66154 919 ft 143 kts
2026-04-20 16:46 38.05231 15.66071 550 ft 142 kts 349°
2026-04-20 16:46 38.06164 15.65728 221 ft 138 kts 338°
2026-04-20 16:46 38.07010 15.65222 55 ft 130 kts 332°
2026-04-20 16:47 38.07739 15.64756 84 ft 68 kts 333°
2026-04-20 16:47 38.07808 15.64711 84 ft 0 kts 333°
2026-04-20 16:48 38.07808 15.64710 84 ft 0 kts 322°
2026-04-20 16:48 38.07808 15.64709 84 ft 0 kts 312°
2026-04-20 16:48 38.07808 15.64708 84 ft 0 kts 302°
2026-04-20 16:48 38.07808 15.64705 87 ft 0 kts 281°
2026-04-20 16:49 38.07804 15.64702 87 ft 1 kts 230°
2026-04-20 16:49 38.07792 15.64708 84 ft 5 kts 153°
2026-04-20 16:49 38.07713 15.64761 83 ft 20 kts 151°
2026-04-20 16:49 38.07556 15.64870 65 ft 32 kts 152°
2026-04-20 16:50 38.07334 15.65017 60 ft 36 kts 151°
2026-04-20 16:50 38.07295 15.65124 54 ft 11 kts 69°
2026-04-20 16:50 38.07340 15.65216 56 ft 10 kts 47°
2026-04-20 16:50 38.07369 15.65222 58 ft 5 kts 343°
2026-04-20 16:51 38.07401 15.65218 57 ft 3 kts 20°
2026-04-20 16:51 38.07415 15.65245 54 ft 5 kts 59°
2026-04-20 16:51 38.07418 15.65251 56 ft 0 kts 61°